Date,TemperatureHighF,TemperatureAvgF,TemperatureLowF,DewpointHighF,DewpointAvgF,DewpointLowF,HumidityHigh,HumidityAvg,HumidityLow,PressureMaxIn,PressureMinIn,WindSpeedMaxMPH,WindSpeedAvgMPH,GustSpeedMaxMPH,PrecipitationSumIn
2013-3-1,40.0,36.6,31.3,34.5,30.4,28.0,96,79,66,29.69,29.54,8,1,12,0.00
2013-3-2,41.6,36.6,30.8,30.2,27.7,25.4,80,70,60,29.68,29.63,9,1,11,0.00
2013-3-3,39.6,34.4,31.2,32.5,28.7,24.9,92,80,72,29.65,29.57,7,1,12,0.00
2013-3-4,38.8,33.5,28.9,28.3,24.7,21.4,85,70,56,29.74,29.58,14,4,18,0.00
2013-3-5,44.3,35.6,30.3,32.7,27.7,22.7,93,73,57,30.08,29.75,9,2,16,0.00
2013-3-6,39.6,36.0,33.9,35.0,32.6,29.5,95,87,72,30.12,30.05,12,2,17,0.12
2013-3-7,35.3,31.7,29.7,30.7,29.1,27.7,94,90,77,30.09,30.00,12,3,20,0.16
2013-3-8,38.9,32.1,28.6,31.4,28.1,23.1,96,86,60,30.16,29.95,11,2,24,0.10
2013-3-9,46.7,34.5,25.2,32.1,25.4,19.3,95,71,48,30.36,30.16,6,1,13,0.41
2013-3-10,42.6,32.8,20.9,33.1,28.3,19.2,96,84,65,30.43,30.32,5,0,6,0.01
2013-3-11,52.9,42.0,34.2,40.2,35.7,31.4,94,79,53,30.34,30.15,9,1,12,0.00
2013-3-12,55.9,48.9,41.3,52.7,46.9,39.5,97,93,81,30.17,29.73,11,1,16,0.33
2013-3-13,52.2,43.5,32.1,51.1,31.7,21.0,96,66,35,29.79,29.70,10,2,22,0.01
2013-3-14,35.6,30.6,21.9,24.6,16.1,7.3,72,55,42,29.84,29.71,14,3,23,0.00
2013-3-15,39.9,29.1,18.8,27.4,13.1,4.3,75,52,28,29.88,29.64,11,3,18,0.00
2013-3-16,38.4,33.0,27.2,26.3,15.7,9.2,74,50,30,29.86,29.67,10,2,13,0.00
2013-3-17,36.8,29.5,22.1,16.7,11.7,5.1,76,49,29,30.33,29.89,12,2,17,0.00
2013-3-18,37.5,27.5,16.6,26.0,10.7,0.6,91,50,29,30.47,30.26,5,1,11,0.00
2013-3-19,34.7,31.7,27.3,33.4,30.4,25.2,96,95,92,30.26,29.62,10,2,15,0.33
2013-3-20,38.0,29.5,23.3,25.2,21.7,18.8,93,74,47,29.82,29.70,11,2,20,0.36
2013-3-21,37.2,28.7,20.2,28.5,21.8,14.6,92,77,46,29.83,29.62,5,0,9,0.15
2013-3-22,39.3,32.6,26.1,25.9,20.2,14.8,93,61,39,29.75,29.61,10,2,13,0.06
2013-3-23,43.0,34.6,26.6,23.5,20.0,17.4,77,57,38,29.79,29.64,13,3,20,0.00
2013-3-24,46.5,37.4,29.4,29.8,24.1,20.0,85,60,42,29.82,29.73,14,2,15,0.00
2013-3-25,42.0,35.8,29.0,34.9,30.0,25.1,91,79,71,29.78,29.53,7,1,11,0.00
2013-3-26,49.7,40.3,34.0,30.5,25.4,20.5,81,57,33,29.79,29.54,9,1,13,0.00
2013-3-27,52.8,42.3,30.2,32.2,25.5,21.9,72,53,34,29.87,29.75,14,2,18,0.00
2013-3-28,46.8,41.1,35.7,36.1,33.6,30.2,92,75,54,30.02,29.87,7,1,12,0.02
2013-3-29,55.4,45.1,32.5,36.7,32.9,28.6,87,64,39,30.05,29.97,9,1,17,0.00
2013-3-30,56.7,45.5,32.8,33.7,25.9,15.6,83,51,21,30.11,30.00,9,2,21,0.00
2013-3-31,59.7,44.4,26.4,40.4,27.7,21.6,85,56,26,30.13,29.76,12,2,19,0.01